Erie, PA

11:11 PM EDT on October 20, 2019 (GMT -0400)
Erie International

Weather History for KERI - August, 2019

Change the Weather History Date:

Tuesday, August 6, 2019

  Actual Average Record
Temperature  
Mean Temperature 78 °F 71 °F  
Max Temperature 88 °F 79 °F 96 °F (1918)
Min Temperature 68 °F 64 °F 49 °F (1957)
Degree Days  
Heating Degree Days 0 0  
Month to date heating degree days 0 0  
Since 1 June heating degree days 38 68  
Since 1 July heating degree days 0 7  
Cooling Degree Days 13 7  
Month to date cooling degree days 55 42  
Year to date cooling degree days 520 417  
Since 1 June cooling degree days 487 378  
Growing Degree Days 28 (Base 50)    
Moisture  
Dew Point 64 °F    
Average Humidity 66    
Maximum Humidity 84    
Minimum Humidity 48    
Precipitation  
Precipitation 0.67 in 0.12 in 1.87 in (1962)
Month to date precipitation 0.67 0.70  
Year to date precipitation 23.17 23.06  
Snow  
Snow 0.00 in 0.00 in - ()
Month to date snowfall 0.0 0.0  
Since 1 June snowfall 0.0 0.0  
Since 1 July snowfall 0.0 0.0  
Snow Depth 0.00 in    
Sea Level Pressure  
Sea Level Pressure 29.81 in    
Wind  
Wind Speed 8 mph (SSW)    
Max Wind Speed 28 mph    
Max Gust Speed 42 mph    
Visibility 8 miles    
Events Rain    
T = Trace of Precipitation, MM = Missing Value Source: NWS Daily Summary

Daily Weather History Graph

Daily Weather History Graph

Search for Another Location

Airport or City:

Astronomy

Aug. 06, 2019 Rise Set
Actual Time 6:18 AM EDT 8:33 PM EDT
Civil Twilight 5:47 AM EDT 9:04 PM EDT
Nautical Twilight 5:09 AM EDT 9:42 PM EDT
Astronomical Twilight 4:26 AM EDT 10:25 PM EDT
Moon 12:48 PM EDT (8/6) No Moon Set
Length of Visible Light 15h 16m
Length of Day
14h 14m
Waxing Crescent, 38% of the Moon is Illuminated
Aug 6
Waxing Crescent
Aug 7
First Quarter
Aug 15
Full
Aug 23
Last Quarter
Aug 30
New

Hourly Weather History & Observations

Time (EDT) Temp. Heat Index Dew Point Humidity Pressure Visibility Wind Dir Wind Speed Gust Speed Precip Events Conditions
12:51 AM 73.0 °F - 63.0 °F 71% 29.86 in 10.0 mi South 5.8 mph - N/A   Clear
1:51 AM 73.0 °F - 62.1 °F 68% 29.85 in 10.0 mi South 9.2 mph - N/A   Partly Cloudy
2:51 AM 72.0 °F - 62.1 °F 71% 29.83 in 10.0 mi South 5.8 mph - N/A   Clear
3:51 AM 71.1 °F - 63.0 °F 75% 29.81 in 10.0 mi South 9.2 mph - N/A   Clear
4:51 AM 72.0 °F - 62.1 °F 71% 29.81 in 10.0 mi South 8.1 mph - N/A   Clear
5:51 AM 73.0 °F - 62.1 °F 68% 29.81 in 10.0 mi South 6.9 mph - N/A   Scattered Clouds
6:51 AM 72.0 °F - 62.1 °F 71% 29.81 in 10.0 mi South 5.8 mph - N/A   Clear
7:51 AM 75.0 °F - 63.0 °F 66% 29.80 in 10.0 mi South 9.2 mph - N/A   Clear
8:51 AM 79.0 °F - 64.0 °F 60% 29.81 in 10.0 mi SSW 10.4 mph - N/A   Clear
9:51 AM 82.0 °F 83.4 °F 64.0 °F 54% 29.80 in 10.0 mi SW 8.1 mph - N/A   Clear
10:51 AM 86.0 °F 87.6 °F 64.9 °F 49% 29.80 in 10.0 mi SW 12.7 mph - N/A   Clear
11:51 AM 84.9 °F 86.1 °F 64.0 °F 49% 29.80 in 10.0 mi SW 11.5 mph - N/A   Clear
12:51 PM 84.9 °F 86.6 °F 64.9 °F 51% 29.77 in 10.0 mi WNW 12.7 mph - N/A   Partly Cloudy
1:51 PM 72.0 °F - 66.0 °F 81% 29.80 in 10.0 mi South 9.2 mph - 0.02 in   Mostly Cloudy
2:51 PM 82.9 °F 85.4 °F 66.9 °F 58% 29.77 in 10.0 mi South 8.1 mph - N/A   Partly Cloudy
3:51 PM 73.9 °F - 66.0 °F 76% 29.80 in 4.0 mi South 16.1 mph 24.2 mph 0.04 in Rain Rain
4:00 PM 71.1 °F - 64.9 °F 81% 29.85 in 2.5 mi WSW 18.4 mph 41.4 mph 0.06 in Rain Rain
4:06 PM 68.0 °F - 64.0 °F 87% 29.86 in 1.2 mi WSW 13.8 mph 41.4 mph 0.11 in Rain Heavy Rain
4:16 PM 68.0 °F - 64.0 °F 87% 29.85 in 0.8 mi WSW 13.8 mph 20.7 mph 0.26 in Rain Heavy Rain
4:24 PM 69.1 °F - 64.0 °F 84% 29.85 in 1.8 mi WSW 10.4 mph 20.7 mph 0.32 in Rain Rain
4:31 PM 69.1 °F - 64.0 °F 84% 29.85 in 2.5 mi WSW 6.9 mph - 0.33 in Rain Rain
4:43 PM 69.1 °F - 64.0 °F 84% 29.84 in 4.0 mi SSW 5.8 mph - 0.36 in Rain Light Rain
4:51 PM 69.1 °F - 64.0 °F 84% 29.81 in 2.5 mi SSW 3.5 mph - 0.38 in Rain Rain
5:12 PM 69.1 °F - 64.9 °F 87% 29.80 in 4.0 mi SE 5.8 mph - 0.08 in Rain Rain
5:51 PM 70.0 °F - 66.0 °F 87% 29.80 in 10.0 mi SSW 10.4 mph - 0.09 in   Mostly Cloudy
6:51 PM 70.0 °F - 64.9 °F 84% 29.78 in 10.0 mi SSE 8.1 mph - 0.01 in   Overcast
7:51 PM 70.0 °F - 64.9 °F 84% 29.76 in 10.0 mi SSE 10.4 mph - 0.00 in   Scattered Clouds
8:51 PM 69.1 °F - 64.9 °F 87% 29.75 in 10.0 mi South 8.1 mph - N/A   Overcast
9:51 PM 70.0 °F - 64.9 °F 84% 29.79 in 6.0 mi Calm Calm - 0.05 in Rain Light Rain
10:51 PM 69.1 °F - 64.0 °F 84% 29.78 in 10.0 mi Calm Calm - 0.02 in Rain Light Rain
11:51 PM 68.0 °F - 64.0 °F 87% 29.78 in 10.0 mi Calm Calm - 0.06 in   Overcast